Voltar ao catálogo

TITAN 3C TRANSTAGE DEB

AtivoGEO
NORAD 25001·DEBRIS·🇺🇸 United States

Lançado Sep 26, 1968 de Cape Canaveral Space Force Station

Loading…

TLE

AtualizadoSource: Space-Track

Época: Sep 14, 2026, 12:44 UTC

1 25001U 68081H   26257.53110872 -.00000063  00000-0  00000-0 0  9990
2 25001   2.2251  54.6035 0061118 358.1037 270.4246  1.01691325119227

Acompanhe TITAN 3C TRANSTAGE DEB em tempo real com AllMySat

Download on the App Store